SL-14 DEB, 47082

Orbit data source: Space-Track

SL-14 DEB, 47082 is space debris in LEO originally from a launch on Thu, 15 Aug 1991 UTC launched from the Plesetsk Missile And Space Complex (PKMTR). Debris objects in space refer to the collection of defunct objects orbiting the Earth. Examples of debris include non-operational satellites, rocket bodies, and fragments generated from explosions, collisions, or faulty payload assembly.

Loading next visibility...
Identifier
47082, 1991-056DG
Orbit
LEO
Country
Flag of CISCIS
Related business
Manufacturer
Unknown
Mission
Spacecraft
Bus & Motor
Unknown
Mass
Unknown
Launch date (UTC)
1991-08-15 (34 years ago)
Launch vehicle
Unknown
Launch site
Plesetsk Missile And Space Complex (PKMTR)
Object type
Payload
Rocket body
Debris
Shape & HBR
Unknown shape, 0.1 m
Radar Cross Section
Small (<0.1 m²)

Expand to show TLE details & history
Last TLE update: 3 days ago

TLE from 3 days ago
0 SL-14 DEB
1 47082U 91056DG  26035.88991596 -.00000409  00000-0 -11792-2 0  9990
2 47082  82.6148 263.1031 0038035 248.2902 111.4166 13.11634807251332
Epoch: 2026-02-04T21:21Z
TLE epoch observation values (Epoch: 2026-02-04T21:21:28.738Z)
Latitude
-0.00008°
Longitude
167.68334°
Altitude
1,230.288 km
Speed
7.234 km/s
True Right ascension
17h 32m 24s
True Declination
0° 00' 00"
Sunlit
Object was in daylight at epoch
Visualization orbit readout
Latitude
Unknown
Longitude
Unknown
Altitude
Unknown
Speed
Unknown
Apparent Right ascension
Unknown
Apparent Declination
Unknown
Sunlit
N/A
Visualization observer readout
Local Sidereal Time
13:52:13
Azimuth
Unknown
Elevation
Unknown
Doppler factor
Unknown
Orbital elements
Apogee altitude
1,242.968 km
Perigee altitude
1,185.214 km
Semi-major axis
7,592.228 km
Eccentricity
0.0038
Inclination
82.6148°
RAAN
263.1031°
Arg. of periapsis
248.2902°
True anomaly
111.82165°
Mean anomaly
111.4166°
Eccentric anomaly
111.61919°
Mean motion
3.28087 °/min
Orbital period
109.73 mins
BSTAR
-0.0011792
Loading maneuver chart data...
Computing Atmospheric mass density...
Loading historical data...
Loading historical data...
Loading historical data...
Loading historical data...
Loading historical data...
Loading historical data...
Loading historical data...

Documentation

Showing up to 5 results
|